Regional Weather Roundup
Issued by NWS

Home | Current Version | Previous Version | Text Only | Print | Product List | Glossary On
Versions: 1 2 3 4 5 6 7 8 9 10 11 12 13 14 15 16 17 18 19 20 21 22 23 24 25 26 27 28 29 30 31 32 33 34 35 36 37 38 39 40 41 42 43 44 45 46 47 48 49 50
000
ASUS43 KTOP 310559
RWRKS

WEATHER ROUNDUP FOR KANSAS
NATIONAL WEATHER SERVICE GOODLAND KS
100 AM CDT FRI OCT 31 2014

NOTE:  "FAIR" INDICATES FEW OR NO CLOUDS BELOW 12,000 FEET WITH NO
SIGNIFICANT WEATHER AND/OR OBSTRUCTIONS TO VISIBILITY.

KSZ001>006-013>018-027>032-041>047-310700-
NORTHWEST KANSAS

CITY           SKY/WX    TMP DP  RH WIND       PRES   REMARKS
GOODLAND       CLEAR     36  29  75 CALM      30.44R
6HR MIN TEMP:  36; 6HR MAX TEMP:  52;

HAYS           CLEAR     43  30  61 N20G26    30.40R
HILL CITY      CLEAR     42  33  70 NE17      30.42R
6HR MIN TEMP:  41; 6HR MAX TEMP:  58;

RUSSELL        CLEAR     41  34  76 N12       30.39R
6HR MIN TEMP:  41; 6HR MAX TEMP:  57;

$$

KSZ061>065-074>080-084>089-310700-
SOUTHWEST KANSAS

CITY           SKY/WX    TMP DP  RH WIND       PRES   REMARKS
DODGE CITY     CLEAR     45  32  60 NE15      30.37R
6HR MIN TEMP:  40; 6HR MAX TEMP:  56;

ELKHART          N/A     47  26  44 N5          N/A
GARDEN CITY    CLEAR     44  31  60 NE12      30.39R
6HR MIN TEMP:  44; 6HR MAX TEMP:  53;

GREAT BEND     CLEAR     46  34  61 NE18G28   30.38R
LIBERAL        CLEAR     43  28  56 N8        30.39R
$$

KSZ066>073-081>083-090>101-310700-
SOUTHEAST KANSAS

CITY           SKY/WX    TMP DP  RH WIND       PRES   REMARKS
CHANUTE        CLEAR     51  40  65 N13       30.22R
6HR MIN TEMP:  51; 6HR MAX TEMP:  63;

COFFEYVILLE    CLEAR     53  41  63 N15       30.21R
6HR MIN TEMP:  52; 6HR MAX TEMP:  62;

HUTCHINSON     CLEAR     48  36  63 N16G26    30.34R
6HR MIN TEMP:  48; 6HR MAX TEMP:  64;

MEDICINE LODGE   N/A     52  35  52 N17G24    30.30R
NEWTON         CLEAR     46  32  57 N18G26    30.33R
PARSONS        CLEAR     51  42  71 N12       30.22S
6HR MIN TEMP:  48; 6HR MAX TEMP:  59;

WICHITA INTL   CLEAR     53  36  52 N18G26    30.29R
6HR MIN TEMP:  53; 6HR MAX TEMP:  66;

WICHITA JABRA  CLEAR     49  37  63 N15G22    30.30R
6HR MIN TEMP:  49; 6HR MAX TEMP:  63;

WINFIELD       CLEAR     53  38  56 N20G28    30.27R
6HR MIN TEMP:  51; 6HR MAX TEMP:  61;

$$

KSZ007>012-019>026-033>040-048>060-102>105-310700-
NORTHEAST KANSAS

CITY           SKY/WX    TMP DP  RH WIND       PRES   REMARKS
CONCORDIA      CLOUDY    45  37  73 N17G26    30.38R
6HR MIN TEMP:  43; 6HR MAX TEMP:  58;

EMPORIA        CLEAR     47  39  74 N13       30.28R
6HR MIN TEMP:  47; 6HR MAX TEMP:  59;

LAWRENCE       MOCLDY    47  40  76 N15       30.26R
6HR MIN TEMP:  47; 6HR MAX TEMP:  56;

MANHATTAN      MOCLDY    47  40  76 N9G18     30.33R
6HR MIN TEMP:  46; 6HR MAX TEMP:  61;

OLATHE IND     CLEAR     47  41  80 NW10      30.24R
6HR MIN TEMP:  47; 6HR MAX TEMP:  58;

OLATHE EXE     CLEAR     50  41  71 N13       30.22R
6HR MIN TEMP:  50; 6HR MAX TEMP:  61;

SALINA         CLEAR     45  36  70 N16G25    30.36R
6HR MIN TEMP:  45; 6HR MAX TEMP:  61;

TOPEKA BILLARD CLOUDY    49  41  74 NW10      30.29R
6HR MIN TEMP:  48; 6HR MAX TEMP:  59;

TOPEKA FORBES  CLOUDY    48  40  73 N17       30.27R
6HR MIN TEMP:  48; 6HR MAX TEMP:  58;

$$



USA.gov is the U.S. government's official web portal to all federal, state and local government web resources and services.